Regional Weather Roundup
Issued by NWS

Home | Current Version | Previous Version | Graphics & Text | Print | Product List | Glossary On
Versions: 1 2 3 4 5 6 7 8 9 10 11 12 13 14 15 16 17 18 19 20 21 22 23 24 25 26 27 28 29 30 31 32 33 34 35 36 37 38 39 40 41 42 43 44 45 46 47 48 49 50
000
ASUS43 KMPX 252210
RWRMN
WEATHER ROUNDUP FOR MINNESOTA
NATIONAL WEATHER SERVICE TWIN CITIES/CHANHASSEN MN
500 PM CDT TUE APR 25 2017


NOTE: "FAIR" INDICATES FEW OR NO CLOUDS BELOW 12,000 FEET WITH NO
SIGNIFICANT WEATHER AND/OR OBSTRUCTIONS TO VISIBILITY. N/A MEANS
CURRENT SKY AND/OR WEATHER CONDITIONS ARE NOT AVAILABLE.

MNZ060>063-068>070-252300-
   Twin Cities Metro

CITY           SKY/WX    TMP DP  RH WIND       PRES   REMARKS
TWIN CITIES    LGT RAIN  53  49  86 NE6       29.54F FOG
ST PAUL        LGT RAIN  54  52  93 CALM      29.55F FOG
CRYSTAL        LGT RAIN  54  49  83 CALM      29.53F
BLAINE         LGT RAIN  57  52  82 CALM      29.55S
LAKEVILLE      LGT RAIN  48  48 100 CALM      29.54F
EDEN PRAIRIE   LGT RAIN  53  49  86 CALM      29.53S FOG
SOUTH ST PAUL  PTSUNNY   53  51  92 CALM      29.55S FOG
LAKE ELMO      LGT RAIN  54  52  94 CALM      29.55F
$$
MNZ001>005-007-008-013>017-022>024-027-028-252300-
   Northwest Minnesota

CITY           SKY/WX    TMP DP  RH WIND       PRES   REMARKS
BEMIDJI        CLOUDY    36  31  83 NE15G25   29.74R
HALLOCK        CLOUDY    36  27  69 NE15G22   29.88F
ROSEAU         CLOUDY    34  28  80 NE24      29.86F WCI  21
WARROAD        CLOUDY    32  27  80 NE18G26   29.88S WCI  20
THIEF RVR FALL CLOUDY    34  27  75 NE25G31   29.81R WCI  21
CROOKSTON      CLOUDY    37  30  75 NE18G24   29.83R
FOSSTON        CLOUDY    36  32  87 NE15G25   29.78R
DETROIT LAKES  CLOUDY    37  34  87 N16       29.71R
MOORHEAD       CLOUDY    37  30  75 N22G31    29.76R
PARK RAPIDS    CLOUDY    38  31  76 N17G23    29.69R
MAHNOMEN       CLOUDY    37  32  81 NE17      29.73R
$$
MNZ006-009>011-018-025>026-252300-
   North Central Minnesota

CITY           SKY/WX    TMP DP  RH WIND       PRES   REMARKS
BAUDETTE       CLOUDY    32  25  75 N17G28    29.83S WCI  21
FLAG ISLAND    CLOUDY    32  25  74 NE22G28   29.89F WCI  19
INTL FALLS     CLOUDY    31  25  78 NE16G26   29.82R WCI  20
WASKISH        CLOUDY    36  30  80 NE15G26   29.79R
BIG FORK       CLOUDY    34  30  86 N10G18    29.75R WCI  26
LONGVILLE      CLOUDY    39  34  81 N9        29.70R
GRAND RAPIDS   CLOUDY    40  35  83 N12G18    29.71R
CRANE LAKE     CLOUDY    28  27  93 N10G20    29.82R WCI  19
ORR            CLOUDY    30  27  86 N6        29.75R WCI  24
COOK           CLOUDY    34  30  86 N9G18     29.75R WCI  26
WALKER         CLOUDY    35  32  88 N12       29.71R WCI  27
$$
MNZ012-019>021-037-252300-
   Northeast Minnesota

CITY           SKY/WX    TMP DP  RH WIND       PRES   REMARKS
DULUTH         CLOUDY    50  38  63 E15       29.62R
ELY            CLOUDY    39  36  87 N10       29.71R
HIBBING        CLOUDY    39  36  89 N16G24    29.68R
EVELETH        CLOUDY    42  36  78 NE13G18   29.69R
DULUTH HARBOR  LGT RAIN  41  39  93 NE12      29.65S
TWO HARBORS    CLOUDY    55  43  62 E10       29.62R
SILVER BAY     LGT RAIN  52  43  71 N3        29.62S
GRAND MARAIS     N/A     46  40  79 N14G24    29.66F
G MARAIS ARPRT CLOUDY    39  34  81 N14       29.68S
$$
MNZ029>031-032-039>041-046>048-054>057-064-252300-
   West Central Minnesota

CITY           SKY/WX    TMP DP  RH WIND       PRES   REMARKS
FERGUS FALLS   CLOUDY    39  37  93 N13G20    29.68S
WHEATON        CLOUDY    39  34  81 NW21G29   29.71S
MORRIS         CLOUDY    46  37  71 N18       29.63S
ALEXANDRIA     CLOUDY    45  38  76 N15       29.64R
ELBOW LAKE     CLOUDY    42  37  82 N13G18    29.67R
WADENA         CLOUDY    41  36  81 N13G20    29.66R
GLENWOOD       CLOUDY    46  39  76 N14G21    29.61R
APPLETON       CLOUDY    45  37  76 N16G25    29.62F
BENSON         PTSUNNY   52  36  54 N12G18    29.62F
ORTONVILLE     CLOUDY    39  34  81 N22       29.66R
MADISON        LGT RAIN  43  41  93 N21G29    29.65R
WILLMAR        RAIN      52  46  82 NW10      29.58S
$$
MNZ033>034-036-042>043-049>051-058-059-252300-
   Central Minnesota

CITY           SKY/WX    TMP DP  RH WIND       PRES   REMARKS
ST CLOUD       CLOUDY    61  46  57 N8        29.54S
SAUK CENTRE    FAIR      47  39  73 N17G23    29.61R
PAYNESVILLE    CLOUDY    56  42  59 N7        29.58R
AITKIN         CLOUDY    52  37  58 N16G22    29.62R
PINE RIVER     CLOUDY    41  36  81 N16G25    29.70F
BRAINERD       CLOUDY    47  38  71 N14G23    29.63R
STAPLES        CLOUDY    41  36  81 N12G21    29.66R
LONG PRAIRIE   FAIR      45  37  76 NW15G22   29.62R
LITTLE FALLS   PTSUNNY   48  37  66 N10G17    29.60R
LITCHFIELD     LGT RAIN  55  52  88 CALM      29.56R
BUFFALO        RAIN      53  50  90 E5        29.54F
MAPLE LAKE     LGT RAIN  55  53  92 CALM      29.54S
HUTCHINSON     LGT RAIN  55  52  90 CALM      29.57R
$$
MNZ037-044-045-052-053-252300-
   East Central Minnesota

CITY           SKY/WX    TMP DP  RH WIND       PRES   REMARKS
PRINCETON      LGT RAIN  61  50  67 E6        29.55S
MORA           CLOUDY    59  39  47 NE5       29.58S
CAMBRIDGE      RAIN      59  50  72 CALM      29.54F
RUSH CITY      LGT RAIN  56  54  91 CALM      29.56S
MOOSE LAKE     LGT RAIN  48  39  71 E8        29.60R
HINCKLEY       LGT RAIN  54  45  71 NE12      29.58R
CLOQUET        CLOUDY    48  36  61 E10       29.62R
MCGREGOR       CLOUDY    52  41  66 N14G22    29.62R
$$
MNZ071>073-080-081-089-090-097-098-252300-
   Southwest Minnesota

CITY           SKY/WX    TMP DP  RH WIND       PRES   REMARKS
MONTEVIDEO     PTSUNNY   45  39  81 N15       29.60F
GRANITE FALLS  LGT RAIN  45  42  88 NW13      29.62R
CANBY          LGT RAIN  40  37  89 NW15G25   29.65R
MARSHALL       RAIN      40  38  93 NW17      29.61R
REDWOOD FALLS  LGT RAIN  45  42  89 NW9       29.57S
OLIVIA         LGT RAIN  50  45  81 NW12      29.56S
PIPESTONE      RAIN      39  34  81 N14G21    29.59S
WINDOM         LGT RAIN  43  41  93 NW15      29.58R
WORTHINGTON    LGT RAIN  40  39  97 N14       29.59R
JACKSON        DRIZZLE   41  41 100 N8        29.58R
TRACY          RAIN      40  40  97 NW15G25   29.60R
SLAYTON        LGT RAIN  38  37  98 N17       29.60R
$$
MNZ065>067-074>077-082>085-091>093-252300-
   South Central Minnesota

CITY           SKY/WX    TMP DP  RH WIND       PRES   REMARKS
MANKATO        LGT RAIN  47  45  93 NW8       29.55S
NEW ULM        RAIN      46  45  93 NW7       29.56S
ST JAMES       DRIZZLE   45  43  93 NW7       29.57F
FAIRMONT       LGT RAIN  45  43  93 NW13      29.54F
GLENCOE        LGT RAIN  51  51 100 S5        29.55R
FARIBAULT      LGT RAIN  48  48 100 N3        29.54F
OWATONNA       TSTM      50  48  93 NE5       29.52F
WASECA         TSTM      46  45  93 N5        29.54S
ALBERT LEA     CLOUDY    50  48  93 N8        29.50F FOG
$$
MNZ078>079-086>088-094>096-252300-
   Southeast Minnesota

CITY           SKY/WX    TMP DP  RH WIND       PRES   REMARKS
ROCHESTER      CLOUDY    52  52 100 NE10      29.53F FOG
RED WING       CLOUDY    55  52  88 CALM      29.54F FOG
STANTON        LGT RAIN  51  49  90 CALM      29.53F
DODGE CENTER   CLOUDY    52  50  93 NE9       29.52F FOG
WINONA         CLOUDY    55  54  94 N3        29.54F
AUSTIN         CLOUDY    54  52  94 NE7       29.50F
PRESTON        CLOUDY    56  51  83 NE8       29.53F
$$
ABBREVIATIONS USED IN REMARKS
   TC - TEMPERATURES IN CELSIUS
  WCI - WIND CHILL INDEX
   HX - HEAT INDEX
  VSB - VISIBILITY
$$




USA.gov is the U.S. government's official web portal to all federal, state and local government web resources and services.